Hourly Weather Bolshie Karnyshi

Today, 24 July, Saturday

Time Temperature Precipitation Wind Pressure Humidity
00:00 +15°C° 0 mm 2 mps 737 mmHg 90%
01:00 +15°C° 0 mm 2 mps 737 mmHg 91%
02:00 +14°C° 0 mm 2 mps 737 mmHg 92%
03:00 +14°C° 0 mm 2 mps 737 mmHg 93%
04:00 +14°C° 0 mm 2 mps 737 mmHg 93%
05:00 +14°C° 0 mm 2 mps 737 mmHg 94%
06:00 +16°C° 0 mm 2 mps 737 mmHg 88%
07:00 +17°C° 0 mm 2 mps 737 mmHg 83%
08:00 +19°C° 0 mm 2 mps 738 mmHg 76%
09:00 +20°C° 0.1 mm 2 mps 738 mmHg 72%
10:00 +21°C° 0.1 mm 2 mps 738 mmHg 67%
11:00 +23°C° 0.1 mm 2 mps 738 mmHg 63%
12:00 +23°C° 0.3 mm 2 mps 738 mmHg 63%
13:00 +24°C° 0.3 mm 2 mps 738 mmHg 64%
14:00 +24°C° 0.3 mm 2 mps 738 mmHg 64%
15:00 +24°C° 0.6 mm 2 mps 738 mmHg 65%
16:00 +24°C° 0.6 mm 2 mps 738 mmHg 65%
17:00 +24°C° 0.6 mm 1 mps 738 mmHg 66%
18:00 +22°C° 0.2 mm 1 mps 738 mmHg 70%
19:00 +21°C° 0.2 mm 1 mps 738 mmHg 74%
20:00 +20°C° 0.2 mm 1 mps 738 mmHg 78%
21:00 +19°C° 0 mm 1 mps 738 mmHg 79%
22:00 +19°C° 0 mm 1 mps 738 mmHg 80%
23:00 +18°C° 0 mm 1 mps 738 mmHg 82%

Tomorrow, 25 July, Sunday

Time Temperature Precipitation Wind Pressure Humidity
00:00 +18°C° 0 mm 1 mps 739 mmHg 82%
01:00 +18°C° 0 mm 1 mps 739 mmHg 82%
02:00 +18°C° 0 mm 1 mps 739 mmHg 82%
03:00 +18°C° 0 mm 1 mps 739 mmHg 82%
04:00 +18°C° 0 mm 1 mps 739 mmHg 82%
05:00 +18°C° 0 mm 1 mps 739 mmHg 82%
06:00 +19°C° 0 mm 1 mps 739 mmHg 82%
07:00 +19°C° 0 mm 1 mps 739 mmHg 81%
08:00 +20°C° 0 mm 1 mps 739 mmHg 80%
09:00 +21°C° 0.2 mm 1 mps 740 mmHg 76%
10:00 +22°C° 0.2 mm 1 mps 740 mmHg 72%
11:00 +23°C° 0.2 mm 2 mps 740 mmHg 68%
12:00 +24°C° 0.2 mm 2 mps 740 mmHg 61%
13:00 +26°C° 0.2 mm 2 mps 740 mmHg 55%
14:00 +27°C° 0.2 mm 2 mps 740 mmHg 48%
15:00 +26°C° 0 mm 2 mps 740 mmHg 51%
16:00 +26°C° 0 mm 2 mps 740 mmHg 54%
17:00 +25°C° 0 mm 2 mps 740 mmHg 56%
18:00 +24°C° 0 mm 2 mps 740 mmHg 62%
19:00 +23°C° 0 mm 2 mps 740 mmHg 67%
20:00 +20°C° 0 mm 2 mps 740 mmHg 72%
21:00 +19°C° 0 mm 2 mps 740 mmHg 74%
22:00 +19°C° 0 mm 2 mps 740 mmHg 76%
23:00 +18°C° 0 mm 2 mps 740 mmHg 78%

Day after tomorrow, 26 July, Monday

Time Temperature Precipitation Wind Pressure Humidity
00:00 +17°C° 0 mm 2 mps 740 mmHg 79%
01:00 +17°C° 0 mm 2 mps 740 mmHg 79%
02:00 +16°C° 0 mm 2 mps 740 mmHg 80%
03:00 +16°C° 0 mm 2 mps 740 mmHg 81%
04:00 +16°C° 0 mm 2 mps 740 mmHg 81%
05:00 +15°C° 0 mm 2 mps 740 mmHg 82%
06:00 +17°C° 0 mm 3 mps 741 mmHg 76%
07:00 +19°C° 0 mm 3 mps 741 mmHg 71%
08:00 +21°C° 0 mm 4 mps 741 mmHg 66%
09:00 +23°C° 0 mm 4 mps 741 mmHg 60%
10:00 +25°C° 0 mm 4 mps 741 mmHg 55%
11:00 +27°C° 0 mm 5 mps 741 mmHg 50%
12:00 +27°C° 0 mm 5 mps 741 mmHg 48%
13:00 +28°C° 0 mm 4 mps 741 mmHg 46%
14:00 +28°C° 0 mm 4 mps 740 mmHg 44%
15:00 +28°C° 0 mm 4 mps 740 mmHg 46%
16:00 +28°C° 0 mm 4 mps 740 mmHg 48%
17:00 +28°C° 0 mm 4 mps 740 mmHg 50%
18:00 +26°C° 0 mm 4 mps 740 mmHg 55%
19:00 +25°C° 0 mm 4 mps 739 mmHg 60%
20:00 +22°C° 0 mm 4 mps 739 mmHg 64%
21:00 +21°C° 0 mm 4 mps 739 mmHg 65%
22:00 +21°C° 0 mm 4 mps 739 mmHg 66%
23:00 +20°C° 0 mm 4 mps 740 mmHg 66%

27 July, Tuesday

Time Temperature Precipitation Wind Pressure Humidity
00:00 +20°C° 0 mm 4 mps 739 mmHg 69%
01:00 +19°C° 0 mm 4 mps 739 mmHg 72%
02:00 +19°C° 0 mm 4 mps 739 mmHg 75%
03:00 +19°C° 0 mm 4 mps 739 mmHg 77%
04:00 +18°C° 0 mm 4 mps 739 mmHg 79%
05:00 +18°C° 0 mm 4 mps 739 mmHg 80%
06:00 +20°C° 0 mm 4 mps 739 mmHg 76%
07:00 +21°C° 0 mm 5 mps 739 mmHg 72%
08:00 +22°C° 0 mm 5 mps 739 mmHg 68%
09:00 +23°C° 0 mm 6 mps 738 mmHg 63%
10:00 +26°C° 0 mm 6 mps 738 mmHg 58%
11:00 +27°C° 0 mm 6 mps 738 mmHg 52%
12:00 +28°C° 0 mm 6 mps 738 mmHg 50%
13:00 +29°C° 0 mm 6 mps 738 mmHg 47%
14:00 +30°C° 0 mm 6 mps 738 mmHg 45%
15:00 +30°C° 0 mm 5 mps 737 mmHg 48%
16:00 +30°C° 0 mm 4 mps 737 mmHg 51%
17:00 +30°C° 0 mm 3 mps 737 mmHg 54%
18:00 +28°C° 0.3 mm 3 mps 737 mmHg 63%
19:00 +25°C° 0.3 mm 2 mps 736 mmHg 72%
20:00 +23°C° 0.3 mm 2 mps 736 mmHg 81%
21:00 +21°C° 3 mm 2 mps 736 mmHg 87%
22:00 +20°C° 3 mm 2 mps 736 mmHg 92%
23:00 +21°C° 3 mm 1 mps 737 mmHg 97%

28 July, Wednesday

Time Temperature Precipitation Wind Pressure Humidity
00:00 +20°C° 1.1 mm 1 mps 736 mmHg 97%
01:00 +20°C° 1.1 mm 1 mps 736 mmHg 97%
02:00 +20°C° 1.1 mm 1 mps 736 mmHg 97%
03:00 +20°C° 0.4 mm 1 mps 736 mmHg 97%
04:00 +20°C° 0.4 mm 1 mps 735 mmHg 97%
05:00 +19°C° 0.4 mm 1 mps 735 mmHg 97%
06:00 +20°C° 0 mm 1 mps 735 mmHg 94%
07:00 +21°C° 0 mm 1 mps 735 mmHg 91%
08:00 +22°C° 0 mm 1 mps 736 mmHg 88%
09:00 +23°C° 0 mm 1 mps 736 mmHg 81%
10:00 +25°C° 0 mm 2 mps 736 mmHg 75%
11:00 +26°C° 0 mm 2 mps 736 mmHg 68%
12:00 +27°C° 0.1 mm 2 mps 736 mmHg 65%
13:00 +27°C° 0.1 mm 3 mps 735 mmHg 61%
14:00 +28°C° 0.1 mm 3 mps 735 mmHg 57%
15:00 +28°C° 0.1 mm 2 mps 735 mmHg 57%
16:00 +28°C° 0.1 mm 2 mps 735 mmHg 58%
17:00 +28°C° 0.1 mm 1 mps 735 mmHg 58%
18:00 +26°C° 0.3 mm 1 mps 735 mmHg 66%
19:00 +24°C° 0.3 mm 1 mps 735 mmHg 74%
20:00 +22°C° 0.3 mm 1 mps 735 mmHg 82%
21:00 +22°C° 0 mm 1 mps 735 mmHg 82%
22:00 +21°C° 0 mm 1 mps 735 mmHg 83%
23:00 +21°C° 0 mm 1 mps 735 mmHg 83%

29 July, Thursday

Time Temperature Precipitation Wind Pressure Humidity
00:00 +20°C° 0 mm 1 mps 735 mmHg 85%
01:00 +20°C° 0 mm 1 mps 735 mmHg 87%
02:00 +18°C° 0 mm 2 mps 735 mmHg 88%
03:00 +18°C° 0 mm 2 mps 735 mmHg 89%
04:00 +18°C° 0 mm 2 mps 735 mmHg 90%
05:00 +18°C° 0 mm 2 mps 735 mmHg 91%
06:00 +19°C° 0 mm 3 mps 735 mmHg 87%
07:00 +20°C° 0 mm 3 mps 735 mmHg 83%
08:00 +21°C° 0 mm 3 mps 735 mmHg 80%
09:00 +22°C° 0 mm 3 mps 736 mmHg 74%
10:00 +24°C° 0 mm 3 mps 736 mmHg 69%
11:00 +26°C° 0 mm 4 mps 736 mmHg 64%
12:00 +26°C° 0 mm 4 mps 736 mmHg 60%
13:00 +27°C° 0 mm 4 mps 736 mmHg 56%
14:00 +28°C° 0 mm 4 mps 736 mmHg 53%
15:00 +27°C° 0 mm 3 mps 736 mmHg 54%
16:00 +27°C° 0 mm 3 mps 736 mmHg 54%
17:00 +27°C° 0 mm 3 mps 736 mmHg 55%
18:00 +25°C° 0 mm 3 mps 736 mmHg 62%
19:00 +22°C° 0 mm 3 mps 736 mmHg 69%
20:00 +20°C° 0 mm 2 mps 736 mmHg 76%
21:00 +19°C° 0 mm 2 mps 736 mmHg 77%
22:00 +19°C° 0 mm 1 mps 736 mmHg 78%
23:00 +18°C° 0 mm 1 mps 736 mmHg 79%
Show more

We Need Your Consent

Meteoprog and our Service Providers may store and access personal data such as cookies, device identifiers or other similar technologies on your device and process such data to personalise content and ads, as well as provide social media features and to analyse the traffic.

  • Store and/or access information on your device

    Cookies, device identifiers or other information can be stored or accessed on your device for the purposes indicated above.

  • Personalised ads and content, ad and content measurement, audience insights, and products development

    Ads and content can be personalised based on a profile. More data can be added to better personalise ads and content. Ad and content performance can be measured. Insights about the audience who saw the ads and content can be derived. Such data can be used to develop or improve user’s experience, systems and software.

By clicking ‘I Agree’ you will allow the use of indicated cookies, device identifiers, web beacons or other similar technologies. Your settings can be changed in the browser on your device.

For certain purposes, legitimate interests may be relied on, rather than consent. You can read more about this in our Privacy and Cookie Policy.